STARLINK-4398 (53466 NORAD) Tracking and Keplerian Element Data

This shows tracking and keplerian element data for the satellite.

Feedback or suggestion? Click here.




ElementValue
Catalog53466
NameSTARLINK-4398
Epoch Orbit1521
Epoch Day324.85089206
Epoch Year2022
RAAN83.9118
Inclination97.654
Eccentricity0.0001555
Argument of Perigee19.2533
Mean Anonmoly340.875
Mean Motion15.01256781
Decay Rate3.19E-06
L11 53466U 22099B 22324.85089206 .00000319 00000+0 29403-4 0 9991
L22 53466 97.6540 83.9118 0001555 19.2533 340.8750 15.01256781 15218



Live tracking and technical data element details for STARLINK-4398 (NORAD 53466). STARLINK-4398 can be tracked NOW for your location showing map with azimuth and elevation plus other details from your city location.







IsCatalogInMostPopularTable: catalog: 53466, numindb: 3
Update: records affected: 1



GetName: 53466 STARLINK-4398

Hit Count: updated at: Thu, 08 Dec 2022 10:06:28 GMT